Torna al catalogo

STARLINK-36847

AttivoComunicazioniVLEO
NORAD 67910·PAYLOAD·🇺🇸 United States

Lanciato Feb 22, 2026 da Vandenberg Space Force Base

Loading…

Prossimi Passaggi (prossime 24 ore)

TLE

AggiornatoSource: CelesTrak SupGP

Epoca: Sep 15, 2026, 04:25 UTC

1 67910C 26036G   26258.18451389 -.00044111  00000+0 -15973-2 0  2589
2 67910  43.0012 255.2247 0001371 268.9678  14.4010 15.27608788    13

Traccia STARLINK-36847 in tempo reale con AllMySat

Download on the App Store